Regional Weather Roundup
Issued by NWS

Home | Current Version | Previous Version | Graphics & Text | Print | Product List | Glossary Off
Versions: 1 2 3 4 5 6 7 8 9 10 11 12 13 14 15 16 17 18 19 20 21 22 23 24 25 26 27 28 29 30 31 32 33 34 35 36 37 38 39 40 41 42 43 44 45 46 47 48 49 50

000
ASUS43 KDMX 182107
RWRIA

WEATHER ROUNDUP FOR IOWA
NATIONAL WEATHER SERVICE DES MOINES IA
300 PM CST THU DEC 18 2014

NOTE: "FAIR" INDICATES FEW OR NO CLOUDS BELOW 12,000 FEET WITH NO
SIGNIFICANT WEATHER AND/OR OBSTRUCTIONS TO VISIBILITY.

* - THESE STATIONS ARE NOT NWS STATIONS...THUS NOT UNDER NWS
QUALITY CONTROL.  THEY ALSO DO NOT REPORT WEATHER SUCH
AS PRECIPITATION OR FOG.

IAZ001>003-012>014-020>022-031>034-043>046-182200-
   NORTHWEST IOWA

CITY           SKY/WX    TMP DP  RH WIND       PRES   REMARKS
CARROLL *      CLOUDY    28  23  80 CALM      30.20S
CHEROKEE *     CLOUDY    28  23  80 S3        30.20S
DENISON *      CLOUDY    30  25  80 S7        30.18S WCI  23
LE MARS *      CLOUDY    28  23  80 S8        30.19F WCI  20
ORANGE CITY *  CLOUDY    28  25  86 S5        30.17F WCI  23
SHELDON *      CLOUDY    27  23  86 S6        30.17F WCI  20
SIOUX CITY     CLOUDY    31  23  72 SE5       30.19F WCI  26
SPENCER        CLOUDY    26  19  74 S5        30.20R WCI  20
STORM LAKE *   CLOUDY    28  23  80 S6        30.19S WCI  22
$$

IAZ055>058-069>071-079>083-090>094-182200-
   SOUTHWEST IOWA

CITY           SKY/WX    TMP DP  RH WIND       PRES   REMARKS
ATLANTIC *     CLOUDY    30  27  86 S5        30.20S WCI  25
AUDUBON *      MOSUNNY   30  21  69 CALM      30.21R
CLARINDA *     CLOUDY    30  27  86 CALM      30.22F
COUNCIL BLFS * CLOUDY    30  28  93 S5        30.18S WCI  25
CRESTON *      CLOUDY    28  27  93 CALM      30.20S
HARLAN  *      CLOUDY    30  28  93 SE5       30.23S WCI  25
LAMONI         CLOUDY    29  25  85 SE3       30.20F
RED OAK *      CLOUDY    30  27  86 CALM      30.21S
SHENANDOAH *   CLOUDY    30  28  93 SE3       30.22S
$$

IAZ047>049-059>061-072>074-084-182200-
   CENTRAL IOWA

CITY           SKY/WX    TMP DP  RH WIND       PRES   REMARKS
AMES           CLOUDY    27  18  69 CALM      30.23S
ANKENY *       CLOUDY    30  21  69 VRB5      30.23S WCI  25
CHARITON *     PTSUNNY   28  25  86 NE3       30.22S
DES MOINES     CLOUDY    31  21  66 SE3       30.23S
GRINNELL*      CLOUDY    27  21  80 CALM      30.23S
KNOXVILLE *    CLOUDY    27  21  80 CALM      30.22S
MARSHALLTOWN   CLOUDY    24  18  77 CALM      30.23S
PELLA *        PTSUNNY   28  23  80 CALM      30.26R
PERRY *        CLOUDY    30  25  80 CALM      30.22S
$$

IAZ004>006-015-016-023>025-035-036-182200-
   NORTH CENTRAL IOWA

CITY           SKY/WX    TMP DP  RH WIND       PRES   REMARKS
ALGONA *       CLOUDY    25  19  80 CALM      30.23R
CLARION *      CLOUDY    25  21  86 S3        30.22S
ESTHERVILLE    CLOUDY    23  17  78 CALM      30.21R
FORT DODGE *   CLOUDY    27  18  69 CALM      30.23R
MASON CITY     CLOUDY    23  17  78 CALM      30.24S
FOREST CITY *  CLOUDY    25  18  74 CALM      30.22R
IOWA FALLS *   CLOUDY    25  19  80 CALM      30.24R
$$

IAZ007>011-017>019-026>030-037>042-050>054-066-182200-
   NORTHEAST IOWA

CITY           SKY/WX    TMP DP  RH WIND       PRES   REMARKS
CEDAR RAPIDS   CLOUDY    25  18  74 N5        30.23S WCI  19
CHARLES CITY * PTSUNNY   23  18  80 NW3       30.24S
CLINTON *      MOSUNNY   25  18  74 NW5       30.27S WCI  19
DECORAH *      CLOUDY    23  18  80 NW3       30.23R
DUBUQUE        MOSUNNY   24  17  74 N3        30.22S
MONTICELLO *   MOSUNNY   27  19  74 N5        30.24S WCI  21
OELWEIN *      PTSUNNY   25  18  74 N3        30.24S
WATERLOO       CLOUDY    24  17  74 CALM      30.25S
$$

IAZ064-065-067-068-078-182200-
   EAST CENTRAL IOWA

CITY           SKY/WX    TMP DP  RH WIND       PRES   REMARKS
DAVENPORT      PTSUNNY   25  16  68 W5        30.25S WCI  19
IOWA CITY      CLOUDY    26  18  71 W5        30.27S WCI  20
MT. PLEASANT * CLOUDY    27  21  80 CALM      30.25S
MUSCATINE *    CLOUDY    30  19  64 CALM      30.26S
QUAD CITIES    MOSUNNY   29  16  58 NW5       30.25R WCI  24
$$

IAZ062-063-075>077-085>089-095>099-182200-
   SOUTHEAST IOWA

CITY           SKY/WX    TMP DP  RH WIND       PRES   REMARKS
BURLINGTON     CLOUDY    28  21  75 W3        30.24S
FAIRFIELD *    CLOUDY    27  19  74 CALM      30.25R
FORT MADISON * CLOUDY    28  25  86 N3        30.25S
KEOKUK *       CLOUDY    28  25  86 CALM      30.24R
OSKALOOSA *    CLOUDY    27  23  86 CALM      30.25R
CENTERVILLE *  CLOUDY    28  25  86 CALM      30.24R
OTTUMWA        CLOUDY    27  22  81 NE3       30.24R HAZE
WASHINGTON *   CLOUDY    28  21  74 CALM      30.25S
$$

ABBREVIATIONS USED IN REMARKS
   TC - TEMPERATURES IN CELSIUS
  WCI - WIND CHILL INDEX
   HX - HEAT INDEX
  VSB - VISIBILITY
$$




USA.gov is the U.S. government's official web portal to all federal, state and local government web resources and services.